Zurück zum Katalog

BREEZE-M R/B

AktivHEO
NORAD 39023·ROCKET BODY·🇷🇺 Russia

Gestartet Dec 8, 2012 von Baikonur Cosmodrome

Loading…

Nächste Überflüge (nächste 24 Stunden)

TLE

AktuellSource: Space-Track

Epoche: Sep 14, 2026, 12:35 UTC

1 39023U 12070B   26257.52453213 -.00000085  00000-0  00000-0 0  9998
2 39023  26.1828  22.4225 6350066 221.4569  67.2451  2.09995297104932

Verfolge BREEZE-M R/B in Echtzeit mit AllMySat

Download on the App Store